Showing default

CFOSAT, 43662

Orbit data source: Space-Track

CFOSAT, 43662 is a Chinese payload satellite in SSO that was launched on Mon, 29 Oct 2018 UTC via a CHANG ZHENG 2C launch vehicle from the Jiuquan Satellite Launch Center, China (JSC). Payloads include a variety of satellites, spacecraft, and rockets equipped with specific instruments for various scientific and technological missions. These include communications satellites like Starlink; space stations such as the ISS; scientific satellites like the Hubble; Earth observation satellites from companies like Planet Labs, Umbra, and HawkEye 360; GPS; miniature CubeSats for education and research; and military/defense satellites.

Loading next visibility...
CFOSAT details
Identifier
43662, 2018-083A
Orbit
SSO
Last TLE update2 days ago
Origin
Flag of CNGZZB/CNES (CN / PRC)
ManufacturerDFH
MissionOperational Civil Science
Bus & MotorCAST-2000, Unknown motor
Mass700 kg wet, 700 kg dry
Launch date (UTC)
2018-10-29 (6 years ago)
Launch vehicle
CHANG ZHENG 2C
Launch site
Jiuquan Satellite Launch Center, China (JSC)
Object type
Payload
Rocket body
Debris
Shape & HBRBox + 2 Pan, 10 m
Radar Cross Section5.252 m², Large (>1 m²)

Expand to show TLE details & history

TLE from 2 days ago
0 CFOSAT
1 43662U 18083A   24359.54543219  .00026951  00000-0  13914-2 0  9990
2 43662  97.3682   8.8156 0003543  20.2690 136.5880 15.16278058340742
Epoch: 2024-12-24T13:05Z
Definitive object data (Epoch: 2024-12-24T13:05:25.341Z)
Latitude22.9327°
Longitude-97.97297°
Altitude521.809 km
Speed7.603 km/s
True Right ascension12h 47m 44s
True Declination22° 48' 19"
Sunlit
Object was in daylight at TLE epoch
Visualization TLE readout
Latitude25.88368°
Longitude77.48608°
Altitude517.638 km
Speed7.608 km/s
Apparent Right ascension02h 44m 51s
Apparent Declination-7° 06' 59"
Sunlit
Object is in daylight
Visualization observer readout
Local Sidereal Time17:44:16
Azimuth63.017° ENE
Elevation-38.244°
Doppler factor1
Orbital elements
Apogee altitude516.512 km
Perigee altitude511.628 km
Semi-major axis6,892.207 km
Eccentricity0.0003543
Inclination97.3682°
RAAN8.8156°
Arg. of periapsis20.269°
True anomaly136.61589°
Mean anomaly136.588°
Eccentric anomaly136.60195°
Mean motion3.7932 °/min
BSTAR0.0013914
Orbital period94.91 mins
Loading maneuver chart data...
Loading historical data...
Loading historical data...
Loading historical data...
Loading historical data...
Loading historical data...
Loading historical data...
Loading historical data...

CFOSAT Visibility forecast

Observer location: undefined°, undefined

Span
Click to sort rows by Start time (UTC) header in descending order
Start Az.
Max El. time (UTC)
Max El. Az.
Max El.
End time (UTC)
End Az.
6 mins2024-12-27 00:42:47.460Z155.324° SSE2024-12-27 00:45:47.460Z72.513° E42.01°2024-12-27 00:48:47.460Z356.202° N
5 mins2024-12-27 13:49:47.460Z5.503° NNE2024-12-27 13:51:47.460Z313.463° NW43.798°2024-12-27 13:54:47.460Z199.528° SSW
|